Regional Weather Roundup
Issued by NWS

Home | Current Version | Previous Version | Graphics & Text | Print | Product List | Glossary On
Versions: 1 2 3 4 5 6 7 8 9 10 11 12 13 14 15 16 17 18 19 20 21 22 23 24 25 26 27 28 29 30 31 32 33 34 35 36 37 38 39 40 41 42 43 44 45 46 47 48 49 50
000
ASUS43 KOAX 110510
RWRNE

WEATHER ROUNDUP FOR NEBRASKA
NATIONAL WEATHER SERVICE OMAHA NE
1200 AM CDT FRI JUL 11 2014

NOTES: SATELLITE DATA IS BEING USED TO AUGMENT CLOUD COVER ABOVE
       12000 FEET.
       "FAIR" INDICATES FEW OR NO CLOUDS BELOW 12,000 FEET WITH NO
       SIGNIFICANT WEATHER AND/OR OBSTRUCTIONS TO VISIBILITY.

  * THESE STATIONS DO NOT REPORT WEATHER SUCH AS RAIN...SNOW OR FOG.

NEZ001>004-019>022-054>056-110600-
NEBRASKA PANHANDLE

CITY           SKY/WX    TMP DP  RH WIND       PRES   REMARKS
SCOTTSBLUFF    CLOUDY    69  62  78 SE8       30.00F
ALLIANCE       CLOUDY    65  62  90 E5        29.98F
CHADRON        CLOUDY    67  64  90 W7        29.94F
KIMBALL        CLOUDY    65  60  84 NE17G24   30.04F
SIDNEY         CLOUDY    69  59  70 NE15G24   30.04R
$$

NEZ057>060-069>072-079>082-110600-
SOUTHWEST NEBRASKA

CITY           SKY/WX    TMP DP  RH WIND       PRES   REMARKS
NORTH PLATTE   MOCLDY    75  68  78 SE16G24   29.93F
IMPERIAL       PTCLDY    72  66  81 SE14      29.92F
LEXINGTON      PTCLDY    74  69  84 SE12      29.96S
MCCOOK         CLEAR     74  69  85 SE13      29.94S
OGALLALA       CLOUDY    76  65  69 E7        29.94R
$$

NEZ005>010-023>029-035>040-094-110600-
NORTH CENTRAL NEBRASKA

CITY           SKY/WX    TMP DP  RH WIND       PRES   REMARKS
VALENTINE      LGT RAIN  69  65  86 W8        29.97R
AINSWORTH      RAIN      73  70  88 W6        29.97R
BROKEN BOW     MOCLDY    73  67  81 SE7       29.96S
O`NEILL        MOCLDY    76  62  62 S17       29.94R
ORD            PTCLDY    72  65  78 SE10      29.95R
THEDFORD       CLOUDY    79  68  69 SE7       30.00R
$$

NEZ041-046>049-061>064-073>077-083>087-110600-
SOUTH CENTRAL NEBRASKA

CITY           SKY/WX    TMP DP  RH WIND       PRES   REMARKS
GRAND ISLAND   CLEAR     74  64  71 S17       29.98R
AURORA         CLEAR     73  65  77 S13G18    29.99R
HASTINGS       CLEAR     74  63  68 S15       29.99R
HEBRON         CLEAR     75  64  68 S8        30.01R
HOLDREGE       CLEAR     73  67  80 SE14G21   29.97S
KEARNEY *      CLEAR     70  64  83 SE10      29.98R
YORK           CLEAR     72  64  78 S13       30.00R
$$

NEZ011>018-030>034-042>045-110600-
NORTHEAST NEBRASKA

CITY           SKY/WX    TMP DP  RH WIND       PRES   REMARKS
NORFOLK        PTCLDY    73  63  70 S18G24    29.96S
ALBION         PTCLDY    72  63  72 S13       29.97S
BLAIR          CLEAR     73  64  72 SE13G20   30.01S
FREMONT        CLEAR     75  66  73 S13       30.00R
TEKAMAH        CLEAR     74  65  73 SE12      29.99S
WAYNE          CLEAR     74  66  76 S16G22    29.97S
$$

NEZ050>053-065>068-078-088>093-110600-
SOUTHEAST NEBRASKA

CITY           SKY/WX    TMP DP  RH WIND       PRES   REMARKS
LINCOLN        CLEAR     74  65  73 S12       30.01S
OMAHA EPPLEY   CLEAR     75  64  68 S16       30.01R
BEATRICE       CLEAR     71  64  79 SE10G16   30.01F
FALLS CITY     CLEAR     70  66  87 SE8       30.03S
NEBRASKA CITY  CLEAR     71  66  84 S10       30.03R
PLATTSMOUTH    CLEAR     72  65  77 SE13      30.02S
$$

NEZ044-045-051>053-067-110600-
OMAHA AREA

CITY           SKY/WX    TMP DP  RH WIND       PRES   REMARKS
OMAHA EPPLEY   CLEAR     75  64  68 S16       30.01R
BLAIR          CLEAR     73  64  72 SE13G20   30.01S
FREMONT        CLEAR     75  66  73 S13       30.00R
MILLARD        CLEAR     74  66  76 SE10G16   30.01S
OFFUTT AFB     CLEAR     73  69  88 SE10      30.02R
PLATTSMOUTH    CLEAR     72  65  77 SE13      30.02S
WAHOO          FAIR      73  66  79 S10       30.00S
$$



USA.gov is the U.S. government's official web portal to all federal, state and local government web resources and services.